User: anonymous   Login
Location: Pulvis Stellarum Observatory
(41.6962°N, 71.4263°W)
Time: 23:29:14
(UTC-04:00)
Language:

Cosmos 1758 - Orbit

View from above orbital plane
View from above orbital plane
View from above satellite
View from above satellite

Ground track
Ground track

The orbit data is extracted from the following two-line orbital elements,

1 16791U 86046A   17086.52224950 +.00000382 +00000-0 +25250-4 0  9990
2 16791 082.4676 111.6457 0017059 013.1039 347.0626 15.04342904673122
Epoch (UTC): 27 March 2017 12:32:02
Eccentricity: 0.0017059
inclination: 82.4676°
perigee height: 542 km
apogee height: 565 km
right ascension of ascending node: 111.6457°
argument of perigee: 13.1039°
revolutions per day: 15.04342904
mean anomaly at epoch: 347.0626°
orbit number at epoch: 67312

The dashed part of the orbit path shows where the satellite is in the earth's shadow,  

DLR